Content
SEND FEEDBACK

Daily
Averages
Monthly
Summary
United States of America

EVANSVILLE, WYOMING


Home > North America > United States > Wyoming
Elevation: 5178 feet     Latitude: 42 52N     Longitude: 106 18W

WEATHER
 
SELECT A DAY
Number of Records: 193,264;   Date Range: 1/1/95 - 7/27/14
 
SHARE

PRINT THIS DATA

[ ← Previous Day ]
WEATHER ALMANAC - JANUARY 31, 2013
[ Next Day → ]
[ °C ]   °F
Weather ElementAverageHighLow
Temperature26 °F42.1 °F (2:53 pm)17.1 °F (7:53 am)
Dewpoint17.5 °F21.9 °F (1:53 pm)12 °F (9:53 am)
Humidity71.8 %89 % (2:53 am)43 % (2:53 pm)
Barometer30.11 in30.24 in (10:53 am)29.92 in (1:13 am)
Wind Speed7.7 mph17.3 mph (11:53 pm)
Wind Gust24.2 mph (2:53 pm)
Weather ElementAverage
Visibility10 mi
Wind DirectionSSE (165.8 °)

Weather ElementTotal
Precipitation0.01 in
Heating Degree Days35.4 (Base 65)
Averaged from 26 records on January 31, 2013
WEATHER CONDITIONS BREAKOUT
WIND DIRECTION BREAKOUT
WEATHER BY HOUR - JANUARY 31, 2013
[ °C ]   °F
Local TimeTemperatureDewpointHumidityBarometerVisibilityWind DirectionWind SpeedGust SpeedPrecipitationEventsConditions
12:53 AM21.0 °F18.0 °F88 %30.01 inEast (90°)3.5 mph0.01 inOvercast
1:13 AM21.2 °F17.6 °F86 %29.92 inNE (50°)4.6 mphOvercast
1:53 AM21.0 °F17.1 °F85 %30.02 inESE (110°)3.5 mph0.00 inSnowLight Snow
2:53 AM19.9 °F17.1 °F89 %30.01 inSW (220°)4.6 mph0.00 inOvercast
3:53 AM21.0 °F17.1 °F85 %30.00 inSSW (210°)8.1 mphOvercast
4:53 AM23.0 °F18.0 °F81 %30.03 inWSW (240°)10.4 mphOvercast
5:53 AM21.0 °F16.0 °F81 %30.05 in10.0 miWSW (250°)9.2 mphOvercast
6:53 AM18.0 °F12.9 °F81 %30.12 in10.0 miENE (60°)8.1 mphOvercast
7:53 AM17.1 °F12.9 °F84 %30.17 in10.0 miENE (70°)4.6 mphOvercast
8:53 AM18.0 °F12.9 °F81 %30.20 in10.0 miEast (100°)4.6 mphOvercast
9:53 AM18.0 °F12.0 °F78 %30.23 in10.0 miENE (60°)8.1 mphMostly Cloudy
9:56 AM17.6 °F12.2 °F79 %30.09 in10.0 miENE (60°)6.9 mphScattered Clouds
10:53 AM19.9 °F14.0 °F78 %30.24 in10.0 miCalmPartly Cloudy
11:53 AM24.1 °F16.0 °F71 %30.20 in10.0 miSW (220°)6.9 mphClear
12:53 PM32.0 °F19.9 °F61 %30.14 in10.0 miSSW (210°)5.8 mphPartly Cloudy
1:53 PM37.0 °F21.9 °F54 %30.11 in10.0 miSW (220°)8.1 mphMostly Cloudy
2:53 PM42.1 °F21.0 °F43 %30.09 in10.0 miWest (260°)10.4 mph24.2 mphScattered Clouds
3:53 PM39.9 °F21.0 °F47 %30.09 in10.0 miWest (260°)11.5 mphOvercast
4:53 PM37.9 °F19.9 °F48 %30.08 in10.0 miWest (260°)12.7 mphMostly Cloudy
5:53 PM30.9 °F21.0 °F67 %30.14 in10.0 miSW (230°)5.8 mphPartly Cloudy
6:53 PM28.9 °F19.9 °F69 %30.17 in10.0 miCalmScattered Clouds
7:53 PM30.9 °F21.0 °F67 %30.17 in10.0 miSW (230°)12.7 mphOvercast
8:53 PM28.9 °F19.0 °F67 %30.17 in10.0 miSW (230°)10.4 mphClear
9:53 PM28.9 °F19.0 °F67 %30.17 in10.0 miSW (230°)10.4 mphClear
10:53 PM28.9 °F19.0 °F67 %30.16 in10.0 miSW (230°)11.5 mphClear
11:53 PM30.0 °F19.0 °F64 %30.14 in10.0 miSSW (210°)17.3 mphClear
Hourly data recorded from KCPR, located miles away from Evansville, Wyoming







STORIES FROM OUR PARTNERS